Redmond, OR

6:13 AM PST on December 11, 2019 (GMT -0800)
Roberts Field Airport

Weather History for KRDM - October, 2019

Change the Weather History Date:

Tuesday, October 22, 2019

  Actual Average Record
Temperature  
Mean Temperature 54 °F 45 °F  
Max Temperature 69 °F 61 °F 85 °F (1999)
Min Temperature 38 °F 30 °F 16 °F (1980)
Degree Days  
Heating Degree Days 11 20  
Month to date heating degree days 416 356  
Since 1 July heating degree days 681 755  
Cooling Degree Days 0 0  
Month to date cooling degree days 0 0  
Year to date cooling degree days 293 222  
Growing Degree Days 6 (Base 50)    
Moisture  
Dew Point 40 °F    
Average Humidity 60    
Maximum Humidity 89    
Minimum Humidity 30    
Precipitation  
Precipitation 0.00 in 0.03 in 0.46 in (1973)
Month to date precipitation 0.28 0.41  
Year to date precipitation 9.27 6.55  
Sea Level Pressure  
Sea Level Pressure 30.33 in    
Wind  
Wind Speed 7 mph (West)    
Max Wind Speed 21 mph    
Max Gust Speed 26 mph    
Visibility 10 miles    
Events      
T = Trace of Precipitation, MM = Missing Value Source: NWS Daily Summary

Daily Weather History Graph

Daily Weather History Graph

Search for Another Location

Airport or City:

Astronomy

Oct. 22, 2019 Rise Set
Actual Time 7:28 AM PDT 6:09 PM PDT
Civil Twilight 6:58 AM PDT 6:38 PM PDT
Nautical Twilight 6:24 AM PDT 7:12 PM PDT
Astronomical Twilight 5:51 AM PDT 7:45 PM PDT
Moon 12:25 AM PDT (10/22) 3:39 PM PDT (10/22)
Length of Visible Light 11h 40m
Length of Day
10h 40m
Last Quarter, 36% of the Moon is Illuminated
Oct 22
Last Quarter
Oct 27
New
Nov 4
First Quarter
Nov 12
Full
Nov 19
Last Quarter

Hourly Weather History & Observations

Time (PDT) Temp. Windchill Dew Point Humidity Pressure Visibility Wind Dir Wind Speed Gust Speed Precip Events Conditions
1:56 AM 43.0 °F 38.8 °F 39.0 °F 86% 30.33 in 10.0 mi SSE 6.9 mph - N/A   Clear
2:56 AM 45.0 °F 40.1 °F 41.0 °F 86% 30.32 in 10.0 mi South 9.2 mph - N/A   Scattered Clouds
3:56 AM 48.0 °F - 42.1 °F 80% 30.30 in 10.0 mi SE 4.6 mph - N/A   Partly Cloudy
4:56 AM 48.9 °F - 42.1 °F 77% 30.30 in 10.0 mi East 3.5 mph - N/A   Scattered Clouds
5:56 AM 46.9 °F - 41.0 °F 80% 30.30 in 10.0 mi NE 4.6 mph - N/A   Overcast
6:56 AM 48.9 °F - 42.1 °F 77% 30.32 in 10.0 mi NE 3.5 mph - N/A   Overcast
7:56 AM 50.0 °F - 43.0 °F 77% 30.34 in 10.0 mi Calm Calm - N/A   Overcast
8:56 AM 54.0 °F - 45.0 °F 72% 30.35 in 10.0 mi Calm Calm - N/A   Overcast
9:56 AM 60.1 °F - 46.0 °F 60% 30.33 in 10.0 mi South 4.6 mph - N/A   Clear
10:56 AM 62.1 °F - 45.0 °F 53% 30.32 in 10.0 mi WSW 8.1 mph - N/A   Clear
11:56 AM 66.0 °F - 42.1 °F 42% 30.34 in 10.0 mi WNW 17.3 mph 24.2 mph N/A   Clear
12:56 PM 66.0 °F - 42.1 °F 42% 30.33 in 10.0 mi West 15.0 mph - N/A   Clear
1:56 PM 68.0 °F - 39.0 °F 35% 30.32 in 10.0 mi NW 18.4 mph 21.9 mph N/A   Clear
2:56 PM 68.0 °F - 35.1 °F 30% 30.33 in 10.0 mi NW 12.7 mph - N/A   Clear
3:56 PM 66.0 °F - 36.0 °F 33% 30.33 in 10.0 mi WNW 13.8 mph - N/A   Clear
4:56 PM 64.0 °F - 39.0 °F 40% 30.33 in 10.0 mi WNW 12.7 mph - N/A   Clear
5:56 PM 60.1 °F - 39.0 °F 46% 30.35 in 10.0 mi WNW 6.9 mph - N/A   Clear
6:56 PM 57.0 °F - 39.0 °F 51% 30.35 in 10.0 mi NW 6.9 mph - N/A   Clear
7:56 PM 55.0 °F - 37.9 °F 53% 30.35 in 10.0 mi WNW 6.9 mph - N/A   Clear
8:56 PM 46.0 °F - 36.0 °F 68% 30.36 in 10.0 mi Calm Calm - N/A   Clear
9:56 PM 44.1 °F - 36.0 °F 73% 30.36 in 10.0 mi Calm Calm - N/A   Clear
10:56 PM 44.1 °F 40.8 °F 36.0 °F 73% 30.36 in 10.0 mi SSW 5.8 mph - N/A   Clear
11:56 PM 42.1 °F 40.2 °F 34.0 °F 73% 30.37 in 10.0 mi Variable 3.5 mph - N/A   Clear